Location: Albany
(35.0000°S, 118.0000°E)
Time: 06:19:49
(UTC-04:00)

Daily predictions for brighter satellites

Satellite Brightness Start Highest point End
(mag) Time Altitude Azimuth Time Altitude Azimuth Time Altitude Azimuth
ATLAS 3B CENTAUR R/B 4.2 15:24:34 25° ENE 15:24:34 25° ENE 15:28:52 10° ENE
USA 234 3.8 15:33:17 10° SE 15:38:15 53° ESE 15:38:15 53° ESE
USA 229 DEB 4.3 16:08:13 28° S 16:11:41 53° SE 16:18:14 10° NE
USA 229 4.3 16:08:15 28° S 16:11:47 52° SE 16:18:20 10° NE
Okean-O 3.9 16:16:43 10° NE 16:20:52 39° ESE 16:25:03 10° S
Cosmos 1980 Rocket 2.6 16:24:18 53° S 16:24:18 53° S 16:28:45 10° SSE
Cosmos 1697 Rocket 4.3 16:27:26 22° S 16:27:26 22° S 16:29:36 10° S
Cosmos 1937 Rocket 3.7 16:29:38 59° S 16:29:38 59° S 16:33:54 10° SSE
ATLAS 5 CENTAUR R/B 3.9 16:23:13 10° SSW 16:31:38 35° SE 16:34:53 10° ENE
SL-16 R/B 3.1 16:34:16 10° N 16:39:41 48° ENE 16:45:10 10° SSE
Cosmos 990 Rocket 4.0 16:40:19 60° SW 16:40:19 60° SW 16:45:01 10° S
Cosmos 2263 Rocket 4.4 16:35:38 10° S 16:39:58 22° ESE 16:44:17 10° ENE
Milstar 3 Cent rocket 2.9 16:42:40 34° NNW 16:43:42 37° N 16:48:03 10° ENE
DELTA 2 R/B (1) 3.9 16:49:05 45° NW 16:49:31 46° NNW 16:54:52 10° NE
USA 161 4.0 16:49:43 10° SE 16:52:02 23° E 16:54:26 10° NNE
Cosmos 2322 Rocket 2.7 16:47:44 10° N 16:53:15 61° ENE 16:58:50 10° SSE
IDEFIX/ARIANE 42P 2.8 16:49:01 10° N 16:53:44 47° WNW 16:53:44 47° WNW
COSMOS 2441 4.2 16:51:07 10° NNE 16:55:57 86° WNW 17:00:52 10° SSW
DELTA 2 R/B(2) 4.4 17:00:16 63° ENE 17:00:16 63° ENE 17:03:57 10° ESE
Meteor 1-16 Rocket 4.3 16:55:46 10° N 17:01:04 73° E 17:06:27 10° SSE
Cosmos 1867 4.0 17:03:30 37° WSW 17:03:46 37° SW 17:08:48 10° SSE
Lacrosse 4 Rocket 3.6 17:10:16 13° SSW 17:10:16 13° SSW 17:11:10 10° S
Aureole 2 Rocket 3.7 17:05:50 10° N 17:08:29 33° ENE 17:11:05 10° SE
OAO 2 Rocket 3.2 17:07:11 42° W 17:08:54 89° S 17:13:57 10° E
Cosmos 2150 Rocket 4.2 17:06:54 29° NW 17:09:14 48° WSW 17:14:22 10° S
Cosmos 1484 Rocket 3.3 17:09:40 10° NNE 17:13:27 59° ESE 17:17:20 10° S
Intercosmos 25 Rocket 3.0 17:11:08 10° S 17:15:13 87° W 17:18:25 10° N
Cosmos 2227 4.1 17:09:41 10° SSW 17:15:28 80° WNW 17:21:09 10° NNE
SL-24 DEB 4.2 17:11:14 10° S 17:15:56 90° ESE 17:20:36 10° N
USA 234 4.1 17:16:49 10° SSE 17:22:29 32° SSW 17:25:37 21° WSW
CZ-2C R/B 2.9 17:20:20 10° NNW 17:24:32 34° W 17:28:53 10° SSW
SJ 16-02 1.3 17:21:35 10° NNW 17:26:01 71° WSW 17:30:30 10° SSE
SJ-12 4.0 17:22:29 10° N 17:26:34 55° W 17:30:43 10° SSW
SL-14 R/B 3.9 17:26:20 10° SSW 17:30:03 34° W 17:33:45 10° NNW
MSX 4.5 17:31:02 10° NNW 17:36:05 32° W 17:41:14 10° SW
Cosmos 158 Rocket 3.8 17:34:00 10° SSW 17:38:58 84° WNW 17:43:57 10° NNE
Meteor 1-28 Rocket 3.2 17:35:21 10° S 17:39:03 55° WSW 17:42:42 10° NNW
Cosmos 1818 4.5 17:37:17 18° WSW 17:40:03 27° WNW 17:44:30 10° NNW
Cosmos 44 Rocket 4.0 17:35:32 10° NNW 17:40:34 61° ENE 17:45:32 10° SE
ALOS 4.0 17:38:24 10° NE 17:42:39 35° ESE 17:46:57 10° S
CZ-3 R/B 2.5 17:31:03 13° WNW 17:45:35 56° N 17:50:27 10° ENE
Meteor 2-13 Rocket 4.4 17:42:57 10° N 17:49:02 81° W 17:55:11 10° S
GPS 2-05 Rocket1 4.1 17:51:43 14° WNW 17:53:35 22° NNW 17:56:02 10° NNE
Cosmos 1766 Rocket 3.6 17:49:35 10° SSW 17:54:07 65° W 17:58:31 10° N
Cosmos 1626 2.8 17:52:56 10° SSW 17:56:21 32° W 17:59:43 10° NNW
Okean-O 4.2 17:54:45 10° NW 17:57:28 16° W 18:00:11 10° SW
ATLAS 3B CENTAUR R/B 4.3 17:51:48 10° WNW 17:58:12 43° N 18:14:03 10° ENE
Ariane Rocket 3.2 17:54:05 10° NNE 17:59:12 79° ESE 18:04:23 10° S
Cosmos-2242 3.5 17:55:49 10° NNW 17:59:48 37° W 18:03:52 10° S
Cosmos 1745 Rocket 4.4 17:55:56 10° NNW 18:01:54 42° W 18:08:00 10° S
NOSS 3-1 (C) 3.7 17:56:55 10° SW 18:02:36 42° WNW 18:07:46 10° N
Cosmos 2360 Rocket 2.2 17:58:48 10° NNW 18:04:28 79° WSW 18:10:13 10° SSE
NOSS 3-1 (A) 3.3 17:59:21 10° SW 18:05:25 62° WNW 18:10:51 10° NNE
YAOGAN 1 3.2 18:01:47 10° NNE 18:06:05 62° ESE 18:10:25 10° S
Meteor 2-1 Rocket 4.3 18:00:22 10° N 18:06:06 84° W 18:12:03 10° S
Cosmos 1908 3.3 18:05:45 10° NNW 18:09:33 55° W 18:13:22 10° S
AQUARIUS 4.5 18:07:15 10° N 18:11:35 46° W 18:16:00 10° SSW
GP-B 3.7 18:09:56 10° NNW 18:14:02 35° W 18:18:11 10° SSW
Nadezhda 1 Rocket 4.3 18:08:43 10° SSW 18:14:38 44° W 18:20:24 10° NNW
